PBO Station Position Time Series. Reference Frame : NAM14
Format Version,1.1.1
4-character ID,AC11
Station name,ChickaloonAK2005
Begin Date, 2005-07-21
End Date, 2023-06-26
Release Date, 2023-06-27
Reference position, 61.8070787036 North Latitude, -148.3317493989 East Longitude, 790.89637 meters elevation,
Date, North (mm), East (mm), Vertical (mm), North Std. Deviation (mm), East Std. Deviation (mm),              Vertical Std. Deviation (mm), Quality,
2005-07-21,0.00, 0.00, 0.00, 2.41, 1.59, 7.76, repro,
2005-07-22,-0.77, 0.26, 2.64, 2.39, 1.57, 7.66, repro,
2005-07-23,0.08, -0.44, 1.03, 2.38, 1.57, 7.64, repro,
2005-07-24,-0.60, 0.25, -2.59, 2.45, 1.63, 7.93, repro,
2005-07-25,0.41, -0.74, 3.96, 2.45, 1.61, 7.85, repro,
2005-07-26,-2.24, 0.71, 3.06, 2.52, 1.66, 8.16, repro,
2005-07-27,-3.16, -0.13, 6.82, 2.55, 1.66, 8.07, repro,
2005-07-28,-0.80, -1.48, 3.86, 2.58, 1.68, 8.12, repro,
2005-07-29,-2.21, -0.88, -3.14, 2.47, 1.63, 7.94, repro,
2005-07-30,-1.50, -0.65, 1.09, 2.42, 1.61, 7.79, repro,
2005-07-31,-1.64, -1.73, 7.66, 2.47, 1.62, 7.91, repro,
2005-08-01,-2.20, -1.59, 4.68, 2.47, 1.63, 7.95, repro,
2005-08-02,-1.80, -1.35, 4.53, 2.45, 1.62, 7.87, repro,
2005-08-03,-0.95, -0.51, 5.12, 2.38, 1.58, 7.68, repro,
2005-08-04,-1.25, -0.92, 3.27, 2.39, 1.59, 7.72, repro,
2005-08-05,-1.64, 0.04, -1.84, 2.37, 1.59, 7.71, repro,
2005-08-06,-0.98, -1.96, 2.10, 2.42, 1.60, 7.88, repro,
2005-08-07,0.24, -1.19, -0.55, 2.40, 1.58, 7.77, repro,
2005-08-08,0.07, -1.15, -3.26, 2.39, 1.58, 7.70, repro,
2005-08-09,-1.01, -1.30, -9.16, 2.38, 1.58, 7.69, repro,
2005-08-10,-2.07, -1.30, -6.61, 2.51, 1.69, 8.13, repro,
2005-08-11,-1.20, -1.91, -6.31, 2.48, 1.64, 7.96, repro,
2005-08-12,-0.26, -2.12, -2.42, 2.47, 1.63, 7.89, repro,
2005-08-13,-0.59, -1.14, -0.49, 2.49, 1.61, 7.83, repro,
2005-08-14,-0.87, -1.97, 0.34, 2.38, 1.58, 7.66, repro,
2005-08-15,0.54, -2.26, 2.51, 2.42, 1.59, 7.81, repro,
2005-08-16,-0.38, -2.63, 4.69, 2.48, 1.63, 7.81, repro,
2005-08-17,-1.21, -2.27, 2.56, 2.46, 1.61, 7.80, repro,
2005-08-18,-0.24, -3.60, 8.36, 2.39, 1.57, 7.67, repro,
2005-08-19,-1.76, -2.55, 11.22, 2.39, 1.58, 7.71, repro,
2005-08-20,-1.19, -2.59, 7.37, 2.37, 1.58, 7.65, repro,
2005-08-21,-2.01, -3.01, 10.92, 2.37, 1.58, 7.66, repro,
2005-08-22,-2.54, -2.08, 6.26, 2.40, 1.58, 7.74, repro,
2005-08-23,0.37, -2.48, 10.57, 2.43, 1.58, 7.74, repro,
2005-08-24,-6.58, 0.14, 6.99, 2.70, 1.76, 8.62, repro,
2005-08-25,-2.09, -3.19, 10.20, 2.39, 1.59, 7.69, repro,
2005-08-26,-2.50, -3.40, 5.14, 2.37, 1.57, 7.63, repro,
2005-08-27,-0.23, -4.28, 2.33, 2.39, 1.58, 7.65, repro,
2005-08-28,-1.13, -3.75, 8.09, 2.40, 1.58, 7.70, repro,
2005-08-29,1.72, -3.72, 9.36, 2.41, 1.58, 7.73, repro,
2005-08-30,-0.64, -3.81, 6.87, 2.37, 1.58, 7.65, repro,
2005-08-31,-1.08, -3.93, 1.29, 2.70, 1.81, 8.59, repro,
2005-09-01,-0.09, -3.99, 4.01, 2.38, 1.59, 7.68, repro,
2005-09-02,-0.92, -3.58, 9.21, 2.44, 1.61, 7.79, repro,
2005-09-03,-1.12, -3.89, 10.50, 2.43, 1.60, 7.78, repro,
2005-09-04,-3.12, -2.37, 9.07, 2.51, 1.65, 8.21, repro,
2005-09-05,-0.18, -3.36, 11.65, 2.38, 1.58, 7.66, repro,
2005-09-06,-2.63, -3.36, 7.02, 2.37, 1.59, 7.69, repro,
2005-09-07,-2.36, -3.40, 9.83, 2.40, 1.61, 7.99, repro,
2005-09-08,-0.86, -3.73, 4.01, 2.41, 1.60, 7.97, repro,
2005-09-09,1.10, -2.42, 7.33, 2.53, 1.71, 8.30, repro,
2005-09-10,1.04, -2.26, 7.24, 2.46, 1.64, 8.07, repro,
2005-09-11,-0.85, -2.43, 7.54, 3.09, 2.09, 10.11, repro,
2005-09-12,0.32, -5.88, 0.59, 2.56, 1.74, 8.64, repro,
2005-09-13,1.47, -3.46, 10.12, 2.73, 1.84, 8.67, repro,
2005-09-14,-1.47, -3.30, 9.82, 2.53, 1.68, 8.37, repro,
2005-09-15,-0.54, -4.94, 10.65, 2.62, 1.76, 8.60, repro,
2005-09-16,0.28, -4.13, 17.54, 2.47, 1.65, 8.12, repro,
2005-09-17,-1.39, -3.90, 15.15, 2.38, 1.58, 7.67, repro,
2005-09-18,-1.95, -3.15, 13.17, 2.39, 1.59, 7.71, repro,
2005-09-19,-1.27, -3.68, 19.80, 2.45, 1.63, 7.78, repro,
2005-09-20,-1.27, -3.72, 7.34, 2.39, 1.59, 7.74, repro,
2005-09-21,-1.73, -3.78, 2.35, 2.44, 1.62, 7.87, repro,
2005-09-22,-1.35, -3.02, 3.23, 2.38, 1.58, 7.66, repro,
2005-09-23,0.43, -2.80, 3.92, 2.43, 1.62, 7.91, repro,
2005-09-24,-0.24, -1.28, 12.25, 2.44, 1.63, 7.83, repro,
2005-09-25,-2.01, -3.11, 7.26, 2.44, 1.63, 7.84, repro,
2005-09-26,-0.32, -3.07, 8.60, 2.44, 1.63, 7.84, repro,
2005-09-27,0.21, -3.55, 15.48, 2.44, 1.61, 7.80, repro,
2005-09-28,-1.23, -2.22, 25.71, 2.49, 1.69, 7.94, repro,
2005-09-29,-0.15, -2.95, 21.59, 2.47, 1.65, 7.84, repro,
2005-09-30,-0.19, -3.94, 16.55, 2.40, 1.59, 7.72, repro,
2005-10-01,-0.90, -2.99, 13.75, 2.37, 1.58, 7.69, repro,
2005-10-02,-1.67, -2.87, 2.17, 2.44, 1.62, 7.82, repro,
2005-10-03,-0.85, -3.37, 2.35, 2.42, 1.60, 7.72, repro,
2005-10-04,0.35, -2.62, 4.83, 2.43, 1.61, 7.78, repro,
2005-10-05,-0.61, -2.73, 12.67, 2.37, 1.59, 7.73, repro,
2005-10-06,-1.79, -2.85, 15.75, 2.38, 1.58, 7.69, repro,
2005-10-07,-1.42, -3.44, 15.78, 2.37, 1.58, 7.65, repro,
2005-10-08,-1.17, -3.35, 18.26, 2.42, 1.62, 7.80, repro,
2005-10-09,-1.66, -2.93, 16.65, 2.36, 1.57, 7.62, repro,
2005-10-10,-1.17, -3.07, 15.78, 2.36, 1.58, 7.67, repro,
2005-10-12,0.81, -4.43, 8.73, 5.68, 3.63, 18.44, repro,
2005-10-13,-0.58, -4.17, 14.78, 2.43, 1.63, 7.97, repro,
2005-10-14,-0.32, -3.68, 6.78, 2.41, 1.59, 7.73, repro,
2005-10-15,0.67, -3.64, 8.23, 2.43, 1.60, 7.83, repro,
2005-10-16,0.86, -3.92, 10.02, 2.40, 1.60, 7.71, repro,
2005-10-17,-0.26, -3.21, 17.69, 2.43, 1.60, 7.79, repro,
2005-10-18,-1.75, -2.36, 15.14, 2.48, 1.62, 7.86, repro,
2005-10-19,0.29, -2.83, 11.53, 2.48, 1.63, 7.93, repro,
2005-10-20,1.37, -2.99, 11.46, 2.52, 1.66, 7.96, repro,
2005-10-21,0.45, -3.66, 14.40, 2.48, 1.63, 7.95, repro,
2005-10-22,-1.48, -5.45, 19.48, 2.41, 1.59, 7.75, repro,
2005-10-23,-2.16, -4.89, 17.51, 2.43, 1.60, 7.78, repro,
2005-10-24,-1.06, -4.13, 12.98, 2.42, 1.60, 7.78, repro,
2005-10-25,0.07, -5.36, 12.38, 2.53, 1.66, 8.05, repro,
2005-10-26,-0.24, -4.84, 14.81, 2.51, 1.63, 8.02, repro,
2005-10-27,0.20, -4.46, 9.67, 2.43, 1.60, 7.84, repro,
2005-10-28,-0.39, -4.39, 14.44, 2.43, 1.60, 7.87, repro,
2005-10-29,0.05, -4.45, 14.67, 2.47, 1.64, 7.95, repro,
2005-10-30,0.90, -4.52, 11.20, 2.38, 1.58, 7.72, repro,
2005-10-31,0.40, -2.94, 11.84, 2.64, 1.73, 8.53, repro,
2005-11-01,-0.14, -4.94, 12.68, 2.56, 1.70, 8.24, repro,
2005-11-02,-0.80, -4.79, 9.79, 2.61, 1.72, 8.39, repro,
2005-11-03,-0.60, -4.84, 11.92, 2.49, 1.65, 7.92, repro,
2005-11-04,0.48, -5.21, 7.44, 2.49, 1.68, 7.98, repro,
2005-11-05,2.07, -3.96, 4.42, 2.53, 1.66, 7.99, repro,
2005-11-06,1.13, -5.78, 7.90, 2.55, 1.68, 8.01, repro,
2005-11-07,-0.90, -6.77, 7.14, 2.49, 1.64, 7.95, repro,
2005-11-08,1.10, -5.79, 13.30, 2.49, 1.64, 7.91, repro,
2005-11-09,0.15, -5.36, 19.13, 2.51, 1.68, 8.02, repro,
2005-11-10,0.85, -4.27, 21.03, 2.65, 1.77, 8.29, repro,
2005-11-11,-0.28, -4.57, 20.66, 2.56, 1.74, 8.17, repro,
2005-11-12,0.42, -5.08, 7.77, 2.44, 1.61, 7.79, repro,
2005-11-13,1.09, -6.25, 8.97, 2.66, 1.77, 8.30, repro,
2005-11-14,0.66, -4.88, 1.24, 2.53, 1.67, 8.06, repro,
2005-11-15,-0.61, -5.00, 1.03, 2.35, 1.58, 7.61, repro,
2005-11-16,0.32, -6.12, 9.79, 2.38, 1.60, 7.75, repro,
2005-11-17,0.83, -4.73, 11.74, 2.38, 1.58, 7.75, repro,
2005-11-18,1.58, -3.64, 12.23, 2.41, 1.59, 7.78, repro,
2005-11-19,-3.19, -4.78, 23.39, 2.44, 1.62, 7.90, repro,
2005-11-20,-4.28, -2.44, 19.02, 2.41, 1.62, 7.83, repro,
2005-11-21,-5.02, -3.73, 15.60, 2.48, 1.69, 8.27, repro,
2005-11-22,-2.74, -3.47, 18.42, 2.42, 1.62, 7.86, repro,
2005-11-23,-1.28, -2.59, 23.06, 2.40, 1.58, 7.81, repro,
2005-11-24,-3.78, -2.94, 22.16, 2.41, 1.60, 7.79, repro,
2005-11-25,-5.45, -4.09, 23.87, 2.37, 1.59, 7.66, repro,
2005-11-26,-4.22, -3.29, 14.48, 2.46, 1.65, 7.94, repro,
2005-11-27,0.01, -3.87, -4.26, 2.45, 1.64, 7.91, repro,
2005-11-28,-1.60, -4.08, -4.83, 2.46, 1.63, 7.99, repro,
2005-11-29,-1.04, -4.28, -0.61, 2.46, 1.62, 7.96, repro,
2005-11-30,-1.84, -4.68, -2.01, 2.39, 1.59, 7.74, repro,
2005-12-01,-2.71, -4.88, -2.15, 2.38, 1.59, 7.80, repro,
2005-12-02,-1.56, -4.15, -0.94, 2.36, 1.59, 7.83, repro,
2005-12-03,-0.21, -3.96, 7.37, 2.36, 1.57, 7.67, repro,
2005-12-04,-1.32, -4.10, -1.82, 2.39, 1.57, 7.74, repro,
2005-12-05,-0.32, -5.33, -1.35, 2.45, 1.63, 7.92, repro,
2005-12-06,-2.65, -4.41, 4.43, 2.42, 1.62, 7.84, repro,
2005-12-07,-1.90, -3.38, 18.20, 2.39, 1.61, 7.73, repro,
2005-12-08,-0.10, -0.50, 30.21, 2.40, 1.61, 7.70, repro,
2005-12-09,-2.11, -1.36, 19.66, 2.37, 1.58, 7.75, repro,
2005-12-10,-4.60, -2.94, 11.52, 2.42, 1.62, 7.84, repro,
2005-12-11,-2.86, -3.38, 4.27, 2.46, 1.64, 7.90, repro,
2005-12-12,-4.22, -2.37, 3.05, 2.35, 1.57, 7.66, repro,
2005-12-13,-4.44, -2.32, -3.67, 2.34, 1.58, 7.63, repro,
2005-12-14,-4.33, -2.96, -3.84, 2.36, 1.57, 7.67, repro,
2005-12-15,-2.24, -3.69, 3.19, 2.41, 1.60, 7.87, repro,
2005-12-16,-2.22, -3.43, 11.31, 2.41, 1.59, 7.75, repro,
2005-12-17,-6.44, -3.18, 5.90, 2.41, 1.61, 7.72, repro,
2005-12-18,-4.06, -4.23, 2.06, 2.37, 1.59, 7.78, repro,
2005-12-19,-3.09, -3.48, 9.22, 2.48, 1.65, 7.97, repro,
2005-12-20,-4.51, -4.49, 10.24, 2.51, 1.67, 7.99, repro,
2005-12-21,-4.51, -3.83, 19.33, 2.48, 1.64, 7.94, repro,
2005-12-22,-3.01, -4.67, 16.16, 2.64, 1.76, 8.40, repro,
2005-12-23,-4.87, -2.86, 16.45, 2.52, 1.69, 8.08, repro,
2005-12-24,-4.22, -2.14, 11.13, 2.79, 1.88, 9.16, repro,
2005-12-25,-3.91, -2.94, 15.60, 2.49, 1.73, 8.59, repro,
2005-12-26,-6.82, -2.55, 14.11, 2.44, 1.62, 7.76, repro,
2005-12-27,-6.65, -3.92, 20.08, 2.58, 1.76, 8.83, repro,
2005-12-28,-4.70, -3.00, 13.46, 2.47, 1.65, 7.96, repro,
2005-12-29,-5.34, -2.29, 10.85, 2.62, 1.78, 8.60, repro,
2005-12-30,-6.27, -2.70, 17.84, 2.47, 1.73, 8.52, repro,
2005-12-31,-6.22, -1.64, 20.29, 2.58, 1.75, 8.53, repro,
2006-01-01,-6.24, -2.89, 14.26, 2.45, 1.67, 8.20, repro,
2006-01-02,-6.03, -3.36, 14.19, 2.40, 1.61, 7.70, repro,
2006-01-03,-5.03, -2.22, 6.20, 2.62, 1.81, 9.18, repro,
2006-01-04,-4.62, -2.42, 3.67, 2.68, 1.84, 9.40, repro,
2006-01-05,-6.53, -2.36, 6.85, 2.56, 1.82, 8.76, repro,
2006-01-06,-7.61, -2.63, 11.29, 2.68, 1.82, 8.97, repro,
2006-01-07,-4.71, -2.45, 14.58, 2.50, 1.71, 8.54, repro,
2006-01-08,-3.38, -1.80, 14.50, 2.56, 1.75, 8.93, repro,
2006-01-09,-5.65, -2.19, 10.31, 2.59, 1.75, 8.72, repro,
2006-01-10,-6.14, -2.53, 13.29, 2.62, 1.80, 9.14, repro,
2006-01-11,-5.35, -2.56, 15.28, 2.58, 1.76, 8.79, repro,
2006-01-12,-4.53, -3.40, 6.54, 2.45, 1.65, 7.94, repro,
2006-01-13,-2.10, -2.53, 6.90, 2.56, 1.76, 8.74, repro,
2006-01-14,-3.53, -3.40, 2.17, 2.45, 1.65, 7.99, repro,
2006-01-15,-5.32, -2.90, 3.91, 2.40, 1.63, 7.77, repro,
2006-01-16,-3.18, -2.44, 2.37, 2.55, 1.76, 8.81, repro,
2006-01-17,-3.58, -2.47, 7.46, 2.50, 1.68, 8.13, repro,
2006-01-18,-5.36, -2.80, 8.84, 2.41, 1.62, 7.73, repro,
2006-01-19,-3.52, -2.71, 5.07, 2.45, 1.66, 7.99, repro,
2006-01-20,-3.06, -3.28, 1.69, 2.42, 1.64, 7.78, repro,
2006-01-21,-3.04, -3.41, 10.89, 2.40, 1.62, 7.76, repro,
2006-01-22,-3.51, -3.85, 10.58, 2.40, 1.61, 7.75, repro,
2006-01-23,-4.35, -4.27, 5.21, 2.41, 1.62, 7.78, repro,
2006-01-24,-4.92, -4.59, -1.32, 2.44, 1.67, 7.85, repro,
2006-01-25,-3.89, -3.99, 1.86, 2.31, 1.53, 7.47, repro,
2006-01-26,-3.46, -4.86, 1.36, 2.29, 1.55, 7.51, repro,
2006-01-27,-3.81, -4.39, 3.62, 2.31, 1.55, 7.52, repro,
2006-01-28,-2.81, -4.17, 8.32, 2.32, 1.54, 7.53, repro,
2006-01-29,-2.51, -3.08, 9.33, 2.30, 1.53, 7.47, repro,
2006-01-30,-2.64, -3.48, 7.98, 2.30, 1.55, 7.47, repro,
2006-01-31,-3.60, -4.00, 14.30, 2.28, 1.54, 7.43, repro,
2006-02-01,-3.78, -3.75, 20.33, 2.30, 1.55, 7.45, repro,
2006-02-02,-5.00, -3.67, 7.03, 2.31, 1.55, 7.48, repro,
2006-02-03,-7.38, -2.51, 5.01, 2.38, 1.59, 7.60, repro,
2006-02-04,-5.08, -3.29, 0.84, 2.33, 1.59, 7.69, repro,
2006-02-05,-4.15, -2.29, 4.11, 2.31, 1.54, 7.44, repro,
2006-02-06,-5.39, -1.71, 10.89, 2.32, 1.57, 7.55, repro,
2006-02-07,-8.02, -2.34, 7.29, 2.32, 1.55, 7.49, repro,
2006-02-08,-5.58, -2.75, -2.50, 2.32, 1.55, 7.50, repro,
2006-02-09,-6.67, -1.70, -8.50, 2.35, 1.58, 7.70, repro,
2006-02-10,-5.62, -2.74, -4.64, 2.39, 1.65, 7.82, repro,
2006-02-11,-2.50, -5.43, 3.20, 2.33, 1.56, 7.51, repro,
2006-02-12,-4.29, -2.14, 2.40, 2.33, 1.57, 7.55, repro,
2006-02-13,-4.60, -2.58, -5.90, 2.33, 1.56, 7.53, repro,
2006-02-14,-4.31, -2.67, -12.76, 2.32, 1.56, 7.53, repro,
2006-02-15,-5.35, -2.56, -9.71, 2.33, 1.57, 7.60, repro,
2006-02-16,-1.79, -1.49, -6.17, 2.36, 1.58, 7.80, repro,
2006-02-17,-5.78, -3.06, -12.32, 2.42, 1.63, 7.87, repro,
2006-02-18,-5.25, -2.91, -7.67, 2.38, 1.58, 7.73, repro,
2006-02-19,-5.40, -3.71, -2.42, 2.35, 1.56, 7.56, repro,
2006-02-20,-6.90, -2.85, 0.16, 2.35, 1.57, 7.56, repro,
2006-02-21,-4.10, -2.89, -4.98, 2.38, 1.58, 7.77, repro,
2006-02-22,-4.72, -4.57, 0.40, 2.34, 1.57, 7.58, repro,
2006-02-23,-4.61, -3.82, -8.16, 2.32, 1.55, 7.52, repro,
2006-02-24,-4.01, -4.10, -8.97, 2.34, 1.56, 7.52, repro,
2006-02-25,-4.03, -4.47, -9.97, 2.34, 1.56, 7.56, repro,
2006-02-26,-4.59, -2.50, -6.03, 2.33, 1.55, 7.51, repro,
2006-02-27,-4.13, -2.99, 7.68, 2.35, 1.56, 7.53, repro,
2006-02-28,-5.30, -2.80, 5.37, 2.43, 1.60, 7.94, repro,
2006-03-01,-4.45, -3.00, 0.44, 2.47, 1.60, 7.75, repro,
2006-03-02,-5.59, -4.78, -1.29, 2.36, 1.56, 7.56, repro,
2006-03-03,-4.40, -4.00, 0.76, 2.35, 1.58, 7.62, repro,
2006-03-04,-4.02, -3.75, -2.11, 2.35, 1.55, 7.47, repro,
2006-03-05,-4.71, -4.03, -0.66, 2.35, 1.55, 7.53, repro,
2006-03-06,-5.39, -3.05, 4.85, 2.35, 1.55, 7.48, repro,
2006-03-07,-5.60, -4.09, 9.66, 2.36, 1.56, 7.52, repro,
2006-03-08,-5.88, -4.65, 10.55, 2.34, 1.56, 7.47, repro,
2006-03-09,-3.68, -4.38, 6.17, 2.33, 1.55, 7.41, repro,
2006-03-10,-4.77, -3.50, -4.01, 2.35, 1.55, 7.47, repro,
2006-03-11,-4.67, -3.86, -4.39, 2.38, 1.59, 7.66, repro,
2006-03-12,-5.20, -3.06, 0.22, 2.39, 1.57, 7.62, repro,
2006-03-13,-4.04, -2.83, -2.79, 2.41, 1.59, 7.65, repro,
2006-03-14,-4.55, -3.30, -6.43, 2.39, 1.59, 7.63, repro,
2006-03-15,-4.59, -3.61, -2.21, 2.42, 1.57, 7.67, repro,
2006-03-16,-4.41, -3.70, -5.47, 2.46, 1.62, 7.79, repro,
2006-03-17,-4.29, -3.77, -10.75, 2.47, 1.62, 7.80, repro,
2006-03-18,-3.68, -3.71, -5.58, 2.48, 1.64, 7.85, repro,
2006-03-19,-4.23, -2.34, -0.22, 2.49, 1.65, 7.85, repro,
2006-03-20,-6.99, -2.99, 3.10, 2.41, 1.58, 7.67, repro,
2006-03-21,-4.69, -3.41, -1.97, 2.39, 1.57, 7.63, repro,
2006-03-22,-4.28, -3.16, -7.19, 2.44, 1.62, 7.81, repro,
2006-03-23,-4.13, -3.35, -7.64, 2.44, 1.64, 7.78, repro,
2006-03-24,-3.83, -3.54, -5.95, 2.45, 1.63, 7.78, repro,
2006-03-25,-2.55, -3.46, 0.73, 2.44, 1.63, 7.77, repro,
2006-03-26,-2.65, -2.91, -0.12, 2.44, 1.62, 7.72, repro,
2006-03-27,-3.84, -3.14, -3.91, 2.44, 1.63, 7.75, repro,
2006-03-28,-5.33, -3.21, -1.59, 2.37, 1.57, 7.48, repro,
2006-03-29,-4.90, -3.05, -2.96, 2.35, 1.55, 7.47, repro,
2006-03-30,-5.14, -3.50, -1.64, 2.35, 1.56, 7.53, repro,
2006-03-31,-4.70, -4.03, -4.88, 2.35, 1.54, 7.46, repro,
2006-04-01,-5.09, -2.84, -1.92, 2.34, 1.54, 7.47, repro,
2006-04-02,-4.92, -3.06, -3.91, 2.34, 1.56, 7.53, repro,
2006-04-03,-4.77, -3.12, -3.65, 2.35, 1.55, 7.54, repro,
2006-04-04,-4.98, -3.38, 0.13, 2.36, 1.57, 7.57, repro,
2006-04-05,-3.82, -3.01, -0.93, 2.69, 1.76, 8.56, repro,
2006-04-06,-3.03, -3.93, -7.80, 2.44, 1.60, 7.87, repro,
2006-04-07,-3.63, -3.17, -5.57, 2.42, 1.59, 7.77, repro,
2006-04-08,-4.55, -3.99, 0.40, 2.36, 1.56, 7.62, repro,
2006-04-09,-5.95, -4.13, -4.39, 2.44, 1.64, 7.97, repro,
2006-04-10,-4.35, -3.63, -1.84, 2.34, 1.56, 7.62, repro,
2006-04-11,-4.00, -3.69, -5.20, 2.35, 1.59, 7.87, repro,
2006-04-12,-4.49, -4.57, 1.17, 2.35, 1.59, 7.86, repro,
2006-04-13,-4.46, -4.00, 9.17, 2.32, 1.55, 7.48, repro,
2006-04-14,-3.70, -3.16, 4.80, 2.77, 1.84, 8.79, repro,
2006-04-15,-2.90, -3.48, 0.39, 2.35, 1.60, 7.68, repro,
2006-04-16,-4.11, -3.47, 2.91, 2.33, 1.55, 7.53, repro,
2006-04-17,-3.62, -4.14, 1.01, 2.34, 1.55, 7.53, repro,
2006-04-18,-4.45, -4.79, -2.18, 2.32, 1.55, 7.52, repro,
2006-04-19,-4.91, -2.95, -2.34, 2.33, 1.55, 7.50, repro,
2006-04-20,-3.44, -3.02, -1.96, 2.39, 1.60, 7.65, repro,
2006-04-21,-3.26, -3.84, -4.30, 2.35, 1.56, 7.61, repro,
2006-04-22,-3.27, -4.61, -2.93, 2.37, 1.57, 7.63, repro,
2006-04-23,-3.62, -3.84, -5.10, 2.33, 1.55, 7.52, repro,
2006-04-24,-2.72, -4.15, -1.94, 2.34, 1.55, 7.55, repro,
2006-04-25,-3.81, -3.62, -5.62, 2.39, 1.58, 7.64, repro,
2006-04-26,-1.33, -4.42, -3.68, 2.33, 1.56, 7.57, repro,
2006-04-27,-2.59, -3.68, -2.22, 2.43, 1.60, 7.84, repro,
2006-04-28,-2.34, -4.39, 0.89, 2.37, 1.56, 7.63, repro,
2006-04-29,-4.33, -4.38, -0.58, 2.32, 1.55, 7.51, repro,
2006-04-30,-3.20, -3.95, -5.87, 2.33, 1.55, 7.54, repro,
2006-05-01,-1.90, -4.39, -10.81, 2.34, 1.56, 7.59, repro,
2006-05-02,-2.15, -3.65, -7.77, 2.32, 1.55, 7.51, repro,
2006-05-03,-2.47, -3.69, -3.08, 2.32, 1.54, 7.50, repro,
2006-05-04,-1.34, -3.14, -1.70, 2.46, 1.66, 8.00, repro,
2006-05-05,-3.16, -4.31, 1.80, 2.37, 1.57, 7.65, repro,
2006-05-06,-2.96, -4.77, 7.34, 2.40, 1.60, 7.72, repro,
2006-05-07,-3.54, -4.79, 6.54, 2.37, 1.58, 7.68, repro,
2006-05-08,-1.88, -4.25, 2.75, 2.31, 1.54, 7.51, repro,
2006-05-09,-2.60, -4.21, -1.99, 2.37, 1.61, 7.64, repro,
2006-05-10,-2.41, -4.13, -3.62, 2.33, 1.54, 7.55, repro,
2006-05-11,-2.74, -4.00, -4.20, 2.32, 1.55, 7.53, repro,
2006-05-12,-2.07, -4.02, -3.19, 2.32, 1.55, 7.51, repro,
2006-05-13,-2.36, -4.05, -6.38, 2.32, 1.56, 7.53, repro,
2006-05-14,-2.92, -4.30, -9.88, 2.30, 1.54, 7.47, repro,
2006-05-15,-1.88, -4.07, -9.09, 2.32, 1.55, 7.55, repro,
2006-05-16,-2.66, -4.25, -10.17, 2.35, 1.57, 7.74, repro,
2006-05-17,-2.52, -4.23, -3.42, 2.36, 1.58, 7.77, repro,
2006-05-18,-2.02, -3.80, -3.99, 2.39, 1.60, 7.74, repro,
2006-05-19,-1.18, -4.26, -5.98, 2.38, 1.61, 7.70, repro,
2006-05-20,-2.82, -3.43, 3.30, 2.37, 1.60, 7.63, repro,
2006-05-21,-2.08, -3.71, 1.41, 2.39, 1.61, 7.70, repro,
2006-05-22,-2.59, -3.85, 9.64, 2.41, 1.64, 7.83, repro,
2006-05-23,-2.53, -3.33, 4.73, 2.39, 1.62, 7.76, repro,
2006-05-24,-1.85, -4.01, 3.82, 2.40, 1.62, 7.73, repro,
2006-05-25,-2.84, -4.68, 3.01, 2.38, 1.65, 7.98, repro,
2006-05-26,-1.50, -4.88, -1.35, 2.40, 1.64, 8.01, repro,
2006-05-27,-1.83, -4.53, -0.90, 2.37, 1.62, 7.70, repro,
2006-05-28,-3.12, -5.92, 5.48, 2.39, 1.61, 7.76, repro,
2006-05-29,-0.70, -3.94, 2.12, 2.41, 1.62, 7.78, repro,
2006-05-30,-2.55, -4.76, -2.63, 2.39, 1.61, 7.70, repro,
2006-05-31,-2.12, -3.68, 3.08, 2.44, 1.65, 7.79, repro,
2006-06-01,-2.05, -4.33, 3.43, 2.43, 1.64, 7.73, repro,
2006-06-02,-1.75, -5.23, -0.17, 2.48, 1.68, 8.00, repro,
2006-06-03,1.53, -3.68, -0.11, 2.51, 1.69, 8.08, repro,
2006-06-04,-0.25, -3.66, 7.80, 2.44, 1.64, 7.91, repro,
2006-06-05,-1.28, -3.24, 4.31, 2.43, 1.63, 7.83, repro,
2006-06-06,-0.50, -4.02, 4.15, 2.49, 1.68, 8.07, repro,
2006-06-07,-2.93, -4.18, -0.79, 2.45, 1.66, 8.01, repro,
2006-06-08,-2.63, -4.18, 0.41, 2.39, 1.62, 7.78, repro,
2006-06-09,0.24, -4.17, 3.75, 2.41, 1.62, 7.81, repro,
2006-06-10,1.14, -4.47, 4.59, 2.38, 1.60, 7.66, repro,
2006-06-11,-1.52, -3.78, 4.09, 2.39, 1.62, 7.72, repro,
2006-06-12,-0.50, -4.03, 3.17, 2.36, 1.61, 7.65, repro,
2006-06-13,-2.02, -4.85, 1.20, 2.38, 1.61, 7.71, repro,
2006-06-14,-1.19, -3.91, 2.20, 2.40, 1.62, 7.80, repro,
2006-06-15,-1.37, -3.17, 9.51, 2.41, 1.62, 7.80, repro,
2006-06-16,-1.39, -3.57, 5.95, 2.37, 1.60, 7.57, repro,
2006-06-17,0.55, -4.28, 9.94, 2.38, 1.61, 7.67, repro,
2006-06-18,1.39, -4.46, 4.15, 2.48, 1.67, 7.99, repro,
2006-06-19,-0.12, -3.81, -4.89, 2.45, 1.66, 7.92, repro,
2006-06-20,1.16, -4.03, 1.83, 2.47, 1.66, 7.91, repro,
2006-06-21,-0.35, -4.67, -0.17, 2.42, 1.64, 7.72, repro,
2006-06-22,-0.69, -3.77, -3.89, 2.45, 1.65, 7.86, repro,
2006-06-23,0.27, -4.58, -1.53, 2.44, 1.66, 7.91, repro,
2006-06-24,0.13, -4.03, -1.59, 2.45, 1.66, 7.93, repro,
2006-06-25,0.87, -4.47, -1.97, 2.44, 1.65, 7.85, repro,
2006-06-26,0.47, -2.99, -0.13, 2.44, 1.65, 7.83, repro,
2006-06-27,-0.35, -4.58, -0.52, 2.53, 1.69, 7.99, repro,
2006-06-28,1.76, -4.69, -8.84, 2.48, 1.66, 7.99, repro,
2006-06-29,-0.29, -4.06, -2.28, 2.39, 1.59, 7.76, repro,
2006-06-30,-1.18, -3.99, -0.73, 2.34, 1.59, 7.91, repro,
2006-07-01,-0.51, -4.11, -2.95, 2.35, 1.59, 7.87, repro,
2006-07-02,-2.54, -4.22, -4.89, 2.40, 1.60, 7.96, repro,
2006-07-03,0.23, -4.59, -5.41, 2.35, 1.59, 7.94, repro,
2006-07-04,0.48, -4.29, -10.16, 2.34, 1.59, 7.93, repro,
2006-07-05,0.93, -4.76, -7.89, 2.35, 1.60, 7.96, repro,
2006-07-06,0.40, -4.27, -0.89, 2.34, 1.60, 7.85, repro,
2006-07-07,-0.26, -3.89, -2.84, 2.35, 1.60, 7.91, repro,
2006-07-08,0.56, -4.26, 0.68, 2.36, 1.60, 7.97, repro,
2006-07-09,0.66, -4.31, 3.09, 2.33, 1.58, 7.85, repro,
2006-07-10,0.37, -3.87, 1.84, 2.38, 1.61, 7.98, repro,
2006-07-11,0.85, -3.74, 9.37, 2.34, 1.59, 7.92, repro,
2006-07-12,0.95, -4.76, 6.47, 2.36, 1.60, 7.92, repro,
2006-07-13,2.13, -6.10, 1.44, 2.37, 1.60, 7.94, repro,
2006-07-14,0.23, -5.94, 10.01, 2.40, 1.60, 8.03, repro,
2006-07-15,2.04, -4.12, 1.04, 2.33, 1.59, 7.87, repro,
2006-07-16,0.36, -4.77, 4.68, 2.33, 1.59, 7.88, repro,
2006-07-17,-0.39, -3.46, 4.47, 2.41, 1.63, 8.07, repro,
2006-07-18,1.27, -4.85, 1.51, 2.34, 1.55, 7.52, repro,
2006-07-19,0.20, -5.47, 0.36, 2.34, 1.56, 7.59, repro,
2006-07-20,1.40, -6.12, 2.66, 2.32, 1.55, 7.55, repro,
2006-07-21,1.88, -6.54, -0.14, 2.32, 1.56, 7.59, repro,
2006-07-22,2.33, -5.37, 2.91, 2.32, 1.56, 7.57, repro,
2006-07-23,2.07, -5.86, 2.69, 2.32, 1.55, 7.54, repro,
2006-07-24,-0.02, -6.31, 7.34, 2.36, 1.57, 7.75, repro,
2006-07-25,1.97, -5.98, 6.48, 2.34, 1.55, 7.61, repro,
2006-07-26,2.30, -6.33, 8.65, 2.31, 1.54, 7.50, repro,
2006-07-27,0.39, -6.00, 1.35, 2.32, 1.55, 7.54, repro,
2006-07-28,-0.14, -6.77, 0.95, 2.34, 1.57, 7.63, repro,
2006-07-29,0.86, -6.22, 12.77, 2.36, 1.54, 7.53, repro,
2006-07-30,0.27, -7.00, 6.10, 2.41, 1.59, 7.69, repro,
2006-07-31,2.05, -6.58, 11.17, 2.35, 1.56, 7.59, repro,
2006-08-01,0.99, -6.55, 9.45, 2.32, 1.55, 7.51, repro,
2006-08-02,-0.87, -5.21, 4.60, 2.38, 1.58, 7.64, repro,
2006-08-03,0.88, -5.87, 6.72, 2.39, 1.57, 7.63, repro,
2006-08-04,1.09, -7.08, 7.85, 2.45, 1.64, 7.81, repro,
2006-08-05,0.60, -6.48, 7.56, 2.39, 1.58, 7.69, repro,
2006-08-06,-0.70, -6.70, 11.35, 2.41, 1.59, 7.78, repro,
2006-08-07,-0.88, -6.65, 3.07, 2.67, 1.76, 8.53, repro,
2006-08-08,0.89, -7.56, 4.44, 2.31, 1.54, 7.45, repro,
2006-08-09,1.31, -7.51, 0.79, 2.33, 1.54, 7.49, repro,
2006-08-10,1.07, -7.05, 3.13, 2.33, 1.54, 7.49, repro,
2006-08-11,0.90, -6.55, 9.30, 2.33, 1.55, 7.55, repro,
2006-08-12,1.75, -7.24, 9.37, 2.33, 1.55, 7.54, repro,
2006-08-13,-0.15, -6.56, 7.33, 2.32, 1.54, 7.46, repro,
2006-08-14,-0.47, -6.58, 6.41, 2.32, 1.55, 7.47, repro,
2006-08-15,0.82, -6.68, 5.15, 2.37, 1.56, 7.81, repro,
2006-08-16,0.99, -6.27, 8.90, 2.33, 1.56, 7.53, repro,
2006-08-17,-1.15, -5.71, 5.61, 2.35, 1.58, 7.76, repro,
2006-08-18,1.33, -5.74, 10.47, 2.39, 1.58, 7.60, repro,
2006-08-19,4.66, -4.97, 18.97, 2.44, 1.61, 7.72, repro,
2006-08-20,1.73, -6.38, 6.69, 2.35, 1.57, 7.57, repro,
2006-08-21,1.55, -8.27, 11.95, 2.36, 1.56, 7.68, repro,
2006-08-22,1.32, -7.33, 10.20, 2.37, 1.57, 7.75, repro,
2006-08-23,-0.01, -6.53, 7.52, 2.34, 1.56, 7.66, repro,
2006-08-24,-0.16, -6.46, 6.39, 2.34, 1.56, 7.65, repro,
2006-08-25,1.19, -7.27, 16.65, 2.40, 1.59, 7.81, repro,
2006-08-26,-0.30, -7.38, 6.53, 2.44, 1.60, 7.88, repro,
2006-08-27,1.16, -7.09, 10.80, 2.54, 1.67, 8.17, repro,
2006-08-28,0.72, -6.95, 7.46, 2.48, 1.63, 8.01, repro,
2006-08-29,-0.09, -7.27, 13.00, 2.47, 1.62, 7.89, repro,
2006-08-30,0.45, -7.56, 11.74, 2.47, 1.62, 7.92, repro,
2006-08-31,0.75, -7.63, 11.57, 2.48, 1.61, 7.92, repro,
2006-09-01,0.36, -6.97, 8.45, 2.47, 1.62, 7.97, repro,
2006-09-02,-0.77, -7.43, 11.21, 2.50, 1.64, 8.05, repro,
2006-09-03,0.20, -7.30, 13.17, 2.46, 1.62, 7.91, repro,
2006-09-04,-0.43, -7.99, 13.17, 2.55, 1.66, 8.28, repro,
2006-09-05,-0.25, -7.60, 6.51, 2.55, 1.66, 8.23, repro,
2006-09-06,-0.43, -7.08, 10.65, 2.47, 1.62, 7.96, repro,
2006-09-07,0.24, -5.94, 14.36, 2.56, 1.68, 8.23, repro,
2006-09-08,-1.10, -6.55, 20.00, 2.55, 1.68, 8.21, repro,
2006-09-09,-1.67, -7.07, 18.10, 2.41, 1.59, 7.75, repro,
2006-09-10,-0.04, -8.31, 16.17, 2.41, 1.59, 7.80, repro,
2006-09-11,0.11, -7.89, 13.30, 2.42, 1.59, 7.79, repro,
2006-09-12,-1.08, -7.31, 4.66, 2.40, 1.59, 7.75, repro,